Time,TemperatureF,DewpointF,PressureIn,WindDirection,WindDirectionDegrees,WindSpeedMPH,WindSpeedGustMPH,Humidity,HourlyPrecipIn,Conditions,Clouds,dailyrainin,SoftwareType,DateUTC
2013-10-02 00:04:00,62.3,61.1,30.20,SSE,159,0.0,0.0,96,0.00,CLR,,0.00,WeatherDisplay:10.37,2013-10-02 05:04:00,
2013-10-02 00:10:00,62.1,60.9,30.19,SSE,159,0.0,0.0,96,0.00,CLR,,0.00,WeatherDisplay:10.37,2013-10-02 05:10:00,
2013-10-02 00:15:00,62.1,60.9,30.19,SSE,159,0.0,0.0,96,0.00,CLR,,0.00,WeatherDisplay:10.37,2013-10-02 05:15:00,
2013-10-02 00:20:00,62.0,60.8,30.19,SSE,159,0.0,0.0,96,0.00,CLR,,0.00,WeatherDisplay:10.37,2013-10-02 05:20:00,
2013-10-02 00:25:00,61.8,60.6,30.19,SSE,159,0.0,0.0,96,0.00,CLR,,0.00,WeatherDisplay:10.37,2013-10-02 05:25:00,
2013-10-02 00:30:00,61.8,60.6,30.19,SSE,159,0.0,0.0,96,0.00,CLR,,0.00,WeatherDisplay:10.37,2013-10-02 05:30:00,
2013-10-02 00:35:00,61.6,60.4,30.19,SSE,159,0.0,0.0,96,0.00,CLR,,0.00,WeatherDisplay:10.37,2013-10-02 05:35:00,
2013-10-02 00:40:00,61.6,60.4,30.19,SSE,159,0.0,0.0,96,0.00,CLR,,0.00,WeatherDisplay:10.37,2013-10-02 05:40:00,
2013-10-02 00:45:00,61.8,60.6,30.19,SSE,159,0.0,0.0,96,0.00,CLR,,0.00,WeatherDisplay:10.37,2013-10-02 05:45:00,
2013-10-02 00:50:00,61.8,60.6,30.20,SSE,159,0.0,0.0,96,0.00,CLR,,0.00,WeatherDisplay:10.37,2013-10-02 05:50:00,
2013-10-02 00:55:00,61.8,60.6,30.20,SSE,159,0.0,0.0,96,0.00,CLR,,0.00,WeatherDisplay:10.37,2013-10-02 05:55:00,
2013-10-02 01:00:00,61.6,60.4,30.20,SSE,159,0.0,0.0,96,0.00,CLR,,0.00,WeatherDisplay:10.37,2013-10-02 06:00:00,
2013-10-02 01:05:00,61.6,60.4,30.20,SSE,159,0.0,0.0,96,0.00,CLR,,0.00,WeatherDisplay:10.37,2013-10-02 06:05:00,
2013-10-02 01:10:00,61.6,60.4,30.19,SSE,159,0.0,0.0,96,0.00,CLR,,0.00,WeatherDisplay:10.37,2013-10-02 06:10:00,
2013-10-02 01:15:00,61.6,60.4,30.19,SSE,159,0.0,0.0,96,0.00,CLR,,0.00,WeatherDisplay:10.37,2013-10-02 06:15:00,
2013-10-02 01:20:00,61.6,60.4,30.20,SSE,159,0.0,0.0,96,0.00,CLR,,0.00,WeatherDisplay:10.37,2013-10-02 06:20:00,
2013-10-02 01:25:00,61.8,60.6,30.20,SSE,159,0.0,0.0,96,0.00,CLR,,0.00,WeatherDisplay:10.37,2013-10-02 06:25:00,
2013-10-02 01:30:00,61.8,60.6,30.20,SSE,159,0.0,0.0,96,0.00,CLR,,0.00,WeatherDisplay:10.37,2013-10-02 06:30:00,
2013-10-02 01:35:00,61.8,60.6,30.19,SSE,159,0.0,0.0,96,0.00,CLR,,0.00,WeatherDisplay:10.37,2013-10-02 06:35:00,
2013-10-02 01:40:00,61.8,60.6,30.19,SSE,159,0.0,0.0,96,0.00,CLR,,0.00,WeatherDisplay:10.37,2013-10-02 06:40:00,
2013-10-02 01:45:00,61.8,60.6,30.19,SSE,159,0.0,0.0,96,0.00,CLR,,0.00,WeatherDisplay:10.37,2013-10-02 06:45:00,
2013-10-02 01:50:00,61.8,60.6,30.19,SSE,159,0.0,0.0,96,0.00,CLR,,0.00,WeatherDisplay:10.37,2013-10-02 06:50:00,
2013-10-02 01:55:00,61.8,60.6,30.19,SSE,159,0.0,0.0,96,0.00,CLR,,0.00,WeatherDisplay:10.37,2013-10-02 06:55:00,
2013-10-02 02:00:00,62.0,60.8,30.19,SSE,159,0.0,0.0,96,0.00,CLR,,0.00,WeatherDisplay:10.37,2013-10-02 07:00:00,
2013-10-02 02:05:00,62.1,60.9,30.19,SSE,159,1.1,0.0,96,0.00,CLR,,0.00,WeatherDisplay:10.37,2013-10-02 07:05:00,
2013-10-02 02:10:00,62.1,60.9,30.18,SSE,159,0.0,0.0,96,0.00,CLR,,0.00,WeatherDisplay:10.37,2013-10-02 07:10:00,
2013-10-02 02:15:00,62.1,60.9,30.18,SSE,159,0.0,0.0,96,0.00,CLR,,0.00,WeatherDisplay:10.37,2013-10-02 07:15:00,
2013-10-02 02:20:00,62.1,60.9,30.18,SSE,159,0.0,0.0,96,0.00,CLR,,0.00,WeatherDisplay:10.37,2013-10-02 07:20:00,
2013-10-02 02:25:00,62.1,60.9,30.18,SSE,159,0.0,0.0,96,0.00,CLR,,0.00,WeatherDisplay:10.37,2013-10-02 07:25:00,
2013-10-02 02:30:00,62.1,61.2,30.18,SSE,159,0.0,0.0,97,0.00,CLR,,0.00,WeatherDisplay:10.37,2013-10-02 07:30:00,
2013-10-02 02:35:00,62.1,61.2,30.18,SSE,159,0.0,0.0,97,0.00,CLR,,0.00,WeatherDisplay:10.37,2013-10-02 07:35:00,
2013-10-02 02:40:00,62.1,61.2,30.18,SSE,159,0.0,0.0,97,0.00,CLR,,0.00,WeatherDisplay:10.37,2013-10-02 07:40:00,
2013-10-02 02:45:00,62.1,61.2,30.18,SSE,159,0.0,0.0,97,0.00,CLR,,0.00,WeatherDisplay:10.37,2013-10-02 07:45:00,
2013-10-02 02:50:00,62.1,61.2,30.18,SSE,159,0.0,0.0,97,0.00,CLR,,0.00,WeatherDisplay:10.37,2013-10-02 07:50:00,
2013-10-02 02:55:00,62.1,61.2,30.18,SSE,159,0.0,0.0,97,0.00,CLR,,0.00,WeatherDisplay:10.37,2013-10-02 07:55:00,
2013-10-02 03:00:00,62.1,61.2,30.18,SSE,159,0.0,0.0,97,0.00,CLR,,0.00,WeatherDisplay:10.37,2013-10-02 08:00:00,
2013-10-02 03:05:00,62.3,61.4,30.18,SSE,159,0.0,0.0,97,0.00,CLR,,0.00,WeatherDisplay:10.37,2013-10-02 08:05:00,
2013-10-02 03:10:00,62.3,61.4,30.18,SSE,159,0.0,0.0,97,0.00,CLR,,0.00,WeatherDisplay:10.37,2013-10-02 08:10:00,
2013-10-02 03:15:00,62.4,61.5,30.18,SSE,159,0.0,0.0,97,0.00,CLR,,0.00,WeatherDisplay:10.37,2013-10-02 08:15:00,
2013-10-02 03:20:00,62.4,61.5,30.19,SSE,159,0.0,0.0,97,0.00,CLR,,0.00,WeatherDisplay:10.37,2013-10-02 08:20:00,
2013-10-02 03:25:00,62.4,61.5,30.19,SSE,159,0.0,0.0,97,0.00,CLR,,0.00,WeatherDisplay:10.37,2013-10-02 08:25:00,
2013-10-02 03:30:00,62.4,61.5,30.18,SSE,159,0.0,0.0,97,0.00,CLR,,0.00,WeatherDisplay:10.37,2013-10-02 08:30:00,
2013-10-02 03:35:00,62.4,61.5,30.18,SSE,159,0.0,0.0,97,0.00,CLR,,0.00,WeatherDisplay:10.37,2013-10-02 08:35:00,
2013-10-02 03:40:00,62.4,61.5,30.18,SSE,159,0.0,0.0,97,0.00,CLR,,0.00,WeatherDisplay:10.37,2013-10-02 08:40:00,
2013-10-02 03:45:00,62.6,61.7,30.18,SSE,159,0.0,0.0,97,0.00,CLR,,0.00,WeatherDisplay:10.37,2013-10-02 08:45:00,
2013-10-02 03:50:00,62.6,61.7,30.18,SSE,159,0.0,0.0,97,0.00,CLR,,0.00,WeatherDisplay:10.37,2013-10-02 08:50:00,
2013-10-02 03:55:00,62.6,61.7,30.18,SSE,159,0.0,0.0,97,0.00,CLR,,0.00,WeatherDisplay:10.37,2013-10-02 08:55:00,
2013-10-02 04:00:00,62.4,61.5,30.18,SSE,159,0.0,0.0,97,0.00,CLR,,0.00,WeatherDisplay:10.37,2013-10-02 09:00:00,
2013-10-02 04:05:00,62.4,61.5,30.18,SSE,159,0.0,0.0,97,0.00,CLR,,0.00,WeatherDisplay:10.37,2013-10-02 09:05:00,
2013-10-02 04:10:00,62.4,61.5,30.18,SSE,159,0.0,0.0,97,0.00,CLR,,0.00,WeatherDisplay:10.37,2013-10-02 09:10:00,
2013-10-02 04:15:00,62.4,61.5,30.18,SSE,159,0.0,0.0,97,0.00,CLR,,0.00,WeatherDisplay:10.37,2013-10-02 09:15:00,
2013-10-02 04:20:00,62.3,61.4,30.18,SSE,159,0.0,0.0,97,0.00,CLR,,0.00,WeatherDisplay:10.37,2013-10-02 09:20:00,
2013-10-02 04:25:00,62.3,61.4,30.18,SSE,159,0.0,0.0,97,0.00,CLR,,0.00,WeatherDisplay:10.37,2013-10-02 09:25:00,
2013-10-02 04:30:00,62.1,61.2,30.18,SSE,159,0.0,0.0,97,0.00,CLR,,0.00,WeatherDisplay:10.37,2013-10-02 09:30:00,
2013-10-02 04:35:00,62.0,61.1,30.18,SSE,159,0.0,0.0,97,0.00,CLR,,0.00,WeatherDisplay:10.37,2013-10-02 09:35:00,
2013-10-02 04:40:00,62.0,61.1,30.19,SSE,159,0.0,0.0,97,0.00,CLR,,0.00,WeatherDisplay:10.37,2013-10-02 09:40:00,
2013-10-02 04:45:00,61.8,60.9,30.19,SSE,159,0.0,0.0,97,0.00,CLR,,0.00,WeatherDisplay:10.37,2013-10-02 09:45:00,
2013-10-02 04:50:00,61.6,60.7,30.19,SSE,159,0.0,0.0,97,0.00,CLR,,0.00,WeatherDisplay:10.37,2013-10-02 09:50:00,
2013-10-02 04:55:00,61.6,60.7,30.19,SSE,159,0.0,0.0,97,0.00,CLR,,0.00,WeatherDisplay:10.37,2013-10-02 09:55:00,
2013-10-02 05:00:00,61.5,60.6,30.19,SSE,159,0.0,0.0,97,0.00,CLR,,0.00,WeatherDisplay:10.37,2013-10-02 10:00:00,
2013-10-02 05:05:00,61.3,60.4,30.19,SSE,159,0.0,0.0,97,0.00,CLR,,0.00,WeatherDisplay:10.37,2013-10-02 10:05:00,
2013-10-02 05:10:00,61.3,60.4,30.20,SSE,159,0.0,0.0,97,0.00,CLR,,0.00,WeatherDisplay:10.37,2013-10-02 10:10:00,
2013-10-02 05:15:00,61.3,60.4,30.20,SSE,159,0.0,0.0,97,0.00,CLR,,0.00,WeatherDisplay:10.37,2013-10-02 10:15:00,
2013-10-02 05:20:00,61.3,60.4,30.20,SSE,159,0.0,0.0,97,0.00,CLR,,0.00,WeatherDisplay:10.37,2013-10-02 10:20:00,
2013-10-02 05:25:00,61.3,60.4,30.20,SSE,159,0.0,0.0,97,0.00,CLR,,0.00,WeatherDisplay:10.37,2013-10-02 10:25:00,
2013-10-02 05:30:00,61.3,60.4,30.20,SSE,159,0.0,0.0,97,0.00,CLR,,0.00,WeatherDisplay:10.37,2013-10-02 10:30:00,
2013-10-02 05:35:00,61.3,60.4,30.21,SSE,159,0.0,0.0,97,0.00,CLR,,0.00,WeatherDisplay:10.37,2013-10-02 10:35:00,
2013-10-02 05:40:00,61.3,60.4,30.21,SSE,159,0.0,0.0,97,0.00,CLR,,0.00,WeatherDisplay:10.37,2013-10-02 10:40:00,
2013-10-02 05:45:00,61.3,60.4,30.21,SSE,159,0.0,0.0,97,0.00,CLR,,0.00,WeatherDisplay:10.37,2013-10-02 10:45:00,
2013-10-02 05:50:00,61.5,60.6,30.21,SSE,159,0.0,0.0,97,0.00,CLR,,0.00,WeatherDisplay:10.37,2013-10-02 10:50:00,
2013-10-02 05:55:00,61.6,60.7,30.21,SSE,159,0.0,0.0,97,0.00,CLR,,0.00,WeatherDisplay:10.37,2013-10-02 10:55:00,
2013-10-02 06:00:00,61.6,60.7,30.22,SSE,159,0.0,0.0,97,0.00,CLR,,0.00,WeatherDisplay:10.37,2013-10-02 11:00:00,
2013-10-02 06:05:00,61.5,60.6,30.22,SSE,159,0.0,0.0,97,0.00,CLR,,0.00,WeatherDisplay:10.37,2013-10-02 11:05:00,
2013-10-02 06:10:00,61.5,60.6,30.23,SSE,159,1.1,0.0,97,0.00,CLR,,0.00,WeatherDisplay:10.37,2013-10-02 11:10:00,
2013-10-02 06:15:00,61.5,60.6,30.23,SSE,159,0.0,0.0,97,0.00,CLR,,0.00,WeatherDisplay:10.37,2013-10-02 11:15:00,
2013-10-02 06:20:00,61.5,60.6,30.23,SSE,159,0.0,0.0,97,0.00,CLR,,0.00,WeatherDisplay:10.37,2013-10-02 11:20:00,
2013-10-02 06:25:00,61.3,60.4,30.23,SSE,159,0.0,0.0,97,0.00,CLR,,0.00,WeatherDisplay:10.37,2013-10-02 11:25:00,
2013-10-02 06:30:00,61.3,60.4,30.23,SSE,159,0.0,0.0,97,0.00,CLR,,0.00,WeatherDisplay:10.37,2013-10-02 11:30:00,
2013-10-02 06:35:00,61.3,60.4,30.23,SSE,159,0.0,0.0,97,0.00,CLR,,0.00,WeatherDisplay:10.37,2013-10-02 11:35:00,
2013-10-02 06:40:00,61.3,60.4,30.23,SSE,159,0.0,0.0,97,0.00,CLR,,0.00,WeatherDisplay:10.37,2013-10-02 11:40:00,
2013-10-02 06:45:00,61.2,60.3,30.23,SSE,159,0.0,0.0,97,0.00,CLR,,0.00,WeatherDisplay:10.37,2013-10-02 11:45:00,
2013-10-02 06:50:00,61.2,60.3,30.23,SSE,159,0.0,0.0,97,0.00,CLR,,0.00,WeatherDisplay:10.37,2013-10-02 11:50:00,
2013-10-02 06:55:00,61.2,60.3,30.24,SSE,159,0.0,0.0,97,0.00,CLR,,0.00,WeatherDisplay:10.37,2013-10-02 11:55:00,
2013-10-02 07:00:00,61.2,60.3,30.24,SSE,159,0.0,0.0,97,0.00,CLR,,0.00,WeatherDisplay:10.37,2013-10-02 12:00:00,
2013-10-02 07:05:00,61.2,60.3,30.24,SSE,159,0.0,0.0,97,0.00,CLR,,0.00,WeatherDisplay:10.37,2013-10-02 12:05:00,
2013-10-02 07:10:00,61.3,60.4,30.24,SSE,159,0.0,0.0,97,0.00,CLR,,0.00,WeatherDisplay:10.37,2013-10-02 12:10:00,
2013-10-02 07:15:00,61.5,60.6,30.24,SSE,159,0.0,0.0,97,0.00,CLR,,0.00,WeatherDisplay:10.37,2013-10-02 12:15:00,
2013-10-02 07:20:00,61.5,60.6,30.24,SSE,159,0.0,0.0,97,0.00,CLR,,0.00,WeatherDisplay:10.37,2013-10-02 12:20:00,
2013-10-02 07:25:00,61.6,60.7,30.24,SSE,159,0.0,0.0,97,0.00,CLR,,0.00,WeatherDisplay:10.37,2013-10-02 12:25:00,
2013-10-02 07:30:00,61.8,60.9,30.24,SSE,159,0.0,0.0,97,0.00,CLR,,0.00,WeatherDisplay:10.37,2013-10-02 12:30:00,
2013-10-02 07:35:00,62.0,61.1,30.24,SSE,159,0.0,0.0,97,0.00,CLR,,0.00,WeatherDisplay:10.37,2013-10-02 12:35:00,
2013-10-02 07:40:00,62.1,61.2,30.24,SSE,159,0.0,0.0,97,0.00,CLR,,0.00,WeatherDisplay:10.37,2013-10-02 12:40:00,
2013-10-02 07:45:00,62.1,61.2,30.25,SSE,159,0.0,0.0,97,0.00,CLR,,0.00,WeatherDisplay:10.37,2013-10-02 12:45:00,
2013-10-02 07:50:00,62.1,61.2,30.25,SSE,159,0.0,0.0,97,0.00,CLR,,0.00,WeatherDisplay:10.37,2013-10-02 12:50:00,
2013-10-02 07:55:00,62.1,61.2,30.25,SSE,159,0.0,0.0,97,0.00,CLR,,0.00,WeatherDisplay:10.37,2013-10-02 12:55:00,
2013-10-02 08:00:00,62.3,61.4,30.25,SSE,159,0.0,0.0,97,0.00,CLR,,0.00,WeatherDisplay:10.37,2013-10-02 13:00:00,
2013-10-02 08:05:00,62.4,61.5,30.25,SSE,159,0.0,0.0,97,0.00,CLR,,0.00,WeatherDisplay:10.37,2013-10-02 13:05:00,
2013-10-02 08:10:00,62.7,61.8,30.25,SSE,159,0.0,0.0,97,0.00,CLR,,0.00,WeatherDisplay:10.37,2013-10-02 13:10:00,
2013-10-02 08:15:00,63.2,62.3,30.25,SSE,159,0.0,0.0,97,0.00,CLR,,0.00,WeatherDisplay:10.37,2013-10-02 13:15:00,
2013-10-02 08:20:00,63.9,63.0,30.25,SSE,159,0.0,0.0,97,0.00,CLR,,0.00,WeatherDisplay:10.37,2013-10-02 13:20:00,
2013-10-02 08:25:00,64.5,63.6,30.25,SSE,159,0.0,0.0,97,0.00,CLR,,0.00,WeatherDisplay:10.37,2013-10-02 13:25:00,
2013-10-02 08:30:00,65.3,64.1,30.25,SSE,159,0.0,0.0,96,0.00,CLR,,0.00,WeatherDisplay:10.37,2013-10-02 13:30:00,
2013-10-02 08:35:00,65.8,64.3,30.25,SSE,158,0.0,0.0,95,0.00,CLR,,0.00,WeatherDisplay:10.37,2013-10-02 13:35:00,
2013-10-02 08:40:00,66.1,64.0,30.25,SSE,158,0.0,0.0,93,0.00,CLR,,0.00,WeatherDisplay:10.37,2013-10-02 13:40:00,
2013-10-02 08:45:00,66.1,63.4,30.25,SSE,158,1.1,0.0,91,0.00,CLR,,0.00,WeatherDisplay:10.37,2013-10-02 13:45:00,
2013-10-02 08:50:00,66.8,64.4,30.25,SSE,158,0.0,0.0,92,0.00,CLR,,0.00,WeatherDisplay:10.37,2013-10-02 13:50:00,
2013-10-02 08:55:00,67.3,64.9,30.25,SSE,159,1.1,0.0,92,0.00,CLR,,0.00,WeatherDisplay:10.37,2013-10-02 13:55:00,
2013-10-02 09:00:00,67.8,64.8,30.25,SSE,159,0.0,0.0,90,0.00,CLR,,0.00,WeatherDisplay:10.37,2013-10-02 14:00:00,
2013-10-02 09:05:00,68.6,65.2,30.25,SSE,159,0.0,0.0,89,0.00,CLR,,0.00,WeatherDisplay:10.37,2013-10-02 14:05:00,
2013-10-02 09:10:00,69.1,64.7,30.25,SSE,158,0.0,0.0,86,0.00,CLR,,0.00,WeatherDisplay:10.37,2013-10-02 14:10:00,
2013-10-02 09:15:00,69.3,64.6,30.25,SSE,159,0.0,0.0,85,0.00,CLR,,0.00,WeatherDisplay:10.37,2013-10-02 14:15:00,
2013-10-02 09:20:00,69.6,64.5,30.25,SSE,159,0.0,0.0,84,0.00,CLR,,0.00,WeatherDisplay:10.37,2013-10-02 14:20:00,
2013-10-02 09:25:00,69.4,64.0,30.25,SSE,159,0.0,0.0,83,0.00,CLR,,0.00,WeatherDisplay:10.37,2013-10-02 14:25:00,
2013-10-02 09:30:00,69.6,64.5,30.25,SSE,158,0.0,0.0,84,0.00,CLR,,0.00,WeatherDisplay:10.37,2013-10-02 14:30:00,
2013-10-02 09:35:00,70.3,64.5,30.25,ENE,58,3.5,3.5,82,0.00,CLR,,0.00,WeatherDisplay:10.37,2013-10-02 14:35:00,
2013-10-02 09:40:00,70.8,65.0,30.25,ENE,58,1.1,0.0,82,0.00,CLR,,0.00,WeatherDisplay:10.37,2013-10-02 14:40:00,
2013-10-02 09:45:00,71.5,65.0,30.25,ENE,57,0.0,0.0,80,0.00,CLR,,0.00,WeatherDisplay:10.37,2013-10-02 14:45:00,
2013-10-02 09:50:00,72.1,65.6,30.24,NE,40,1.1,0.0,80,0.00,CLR,,0.00,WeatherDisplay:10.37,2013-10-02 14:50:00,
2013-10-02 09:55:00,72.7,65.4,30.24,NE,41,1.1,0.0,78,0.00,CLR,,0.00,WeatherDisplay:10.37,2013-10-02 14:55:00,
2013-10-02 10:00:00,73.0,65.4,30.25,NE,41,3.5,3.5,77,0.00,CLR,,0.00,WeatherDisplay:10.37,2013-10-02 15:00:00,
2013-10-02 10:05:00,73.7,65.7,30.24,NE,41,2.3,2.3,76,0.00,CLR,,0.00,WeatherDisplay:10.37,2013-10-02 15:05:00,
2013-10-02 10:10:00,74.0,66.0,30.24,ENE,63,1.1,0.0,76,0.00,CLR,,0.00,WeatherDisplay:10.37,2013-10-02 15:10:00,
2013-10-02 10:15:00,74.4,66.0,30.24,ENE,63,0.0,0.0,75,0.00,CLR,,0.00,WeatherDisplay:10.37,2013-10-02 15:15:00,
2013-10-02 10:20:00,74.9,65.7,30.23,ENE,63,0.0,0.0,73,0.00,CLR,,0.00,WeatherDisplay:10.37,2013-10-02 15:20:00,
2013-10-02 10:25:00,75.1,65.5,30.23,ENE,63,0.0,0.0,72,0.00,CLR,,0.00,WeatherDisplay:10.37,2013-10-02 15:25:00,
2013-10-02 10:30:00,75.4,65.7,30.23,ENE,63,0.0,0.0,72,0.00,CLR,,0.00,WeatherDisplay:10.37,2013-10-02 15:30:00,
2013-10-02 10:33:00,75.4,66.1,30.23,ENE,63,0.0,0.0,73,0.00,CLR,,0.00,WeatherDisplay:10.37,2013-10-02 15:33:00,
2013-10-02 10:35:00,68.6,65.5,30.18,NE,45,0.0,0.0,90,0.00,CLR,,0.06,WeatherDisplay:10.37,2013-10-02 15:35:00,
2013-10-02 10:38:00,76.1,66.0,30.23,ENE,66,0.0,0.0,71,0.00,CLR,,0.00,WeatherDisplay:10.37,2013-10-02 15:38:00,
2013-10-02 10:40:00,68.6,65.5,30.18,NE,45,0.0,0.0,90,0.00,CLR,,0.06,WeatherDisplay:10.37,2013-10-02 15:40:00,
2013-10-02 10:43:00,76.8,66.7,30.23,East,94,1.1,1.1,71,0.00,CLR,,0.00,WeatherDisplay:10.37,2013-10-02 15:43:00,
2013-10-02 10:45:00,68.4,65.4,30.18,NE,45,0.0,0.0,90,0.00,CLR,,0.06,WeatherDisplay:10.37,2013-10-02 15:45:00,
2013-10-02 10:48:00,76.8,66.7,30.23,East,94,0.0,0.0,71,0.00,CLR,,0.00,WeatherDisplay:10.37,2013-10-02 15:48:00,
2013-10-02 10:50:00,68.4,65.4,30.18,NE,45,0.0,0.0,90,0.00,CLR,,0.06,WeatherDisplay:10.37,2013-10-02 15:50:00,
2013-10-02 10:53:00,76.8,66.3,30.23,East,94,1.1,1.1,70,0.00,CLR,,0.00,WeatherDisplay:10.37,2013-10-02 15:53:00,
2013-10-02 10:55:00,68.4,65.7,30.18,NE,45,0.0,0.0,91,0.00,CLR,,0.06,WeatherDisplay:10.37,2013-10-02 15:55:00,
2013-10-02 10:58:00,76.8,66.3,30.23,East,97,0.0,0.0,70,0.00,CLR,,0.00,WeatherDisplay:10.37,2013-10-02 15:58:00,
2013-10-02 11:00:00,68.3,65.6,30.18,NE,45,0.0,0.0,91,0.00,CLR,,0.06,WeatherDisplay:10.37,2013-10-02 16:00:00,
2013-10-02 11:03:00,76.8,66.3,30.22,East,99,0.0,0.0,70,0.00,CLR,,0.00,WeatherDisplay:10.37,2013-10-02 16:03:00,
2013-10-02 11:05:00,68.3,65.6,30.18,NE,45,0.0,0.0,91,0.00,CLR,,0.06,WeatherDisplay:10.37,2013-10-02 16:05:00,
2013-10-02 11:08:00,77.0,66.9,30.23,East,99,0.0,0.0,71,0.00,CLR,,0.00,WeatherDisplay:10.37,2013-10-02 16:08:00,
2013-10-02 11:10:00,68.3,65.9,30.18,NE,45,0.0,0.0,92,0.00,CLR,,0.06,WeatherDisplay:10.37,2013-10-02 16:10:00,
2013-10-02 11:13:00,77.0,66.9,30.23,East,99,0.0,0.0,71,0.00,CLR,,0.00,WeatherDisplay:10.37,2013-10-02 16:13:00,
2013-10-02 11:15:00,68.3,65.9,30.18,NE,45,0.0,0.0,92,0.00,CLR,,0.06,WeatherDisplay:10.37,2013-10-02 16:15:00,
2013-10-02 11:18:00,76.8,66.7,30.22,East,99,0.0,0.0,71,0.00,CLR,,0.00,WeatherDisplay:10.37,2013-10-02 16:18:00,
2013-10-02 11:20:00,68.3,65.9,30.18,NE,45,0.0,0.0,92,0.00,CLR,,0.06,WeatherDisplay:10.37,2013-10-02 16:20:00,
2013-10-02 11:23:00,76.8,67.1,30.22,East,99,0.0,0.0,72,0.00,CLR,,0.00,WeatherDisplay:10.37,2013-10-02 16:23:00,
2013-10-02 11:25:00,68.3,65.9,30.18,NE,45,0.0,0.0,92,0.00,CLR,,0.06,WeatherDisplay:10.37,2013-10-02 16:25:00,
2013-10-02 11:28:00,77.0,66.5,30.22,South,171,1.1,0.0,70,0.00,CLR,,0.00,WeatherDisplay:10.37,2013-10-02 16:28:00,
2013-10-02 11:30:00,68.1,65.7,30.18,NE,45,0.0,0.0,92,0.00,CLR,,0.06,WeatherDisplay:10.37,2013-10-02 16:30:00,
2013-10-02 11:33:00,77.7,66.7,30.22,South,171,0.0,0.0,69,0.00,CLR,,0.00,WeatherDisplay:10.37,2013-10-02 16:33:00,
2013-10-02 11:35:00,68.1,65.7,30.18,NE,45,0.0,0.0,92,0.00,CLR,,0.06,WeatherDisplay:10.37,2013-10-02 16:35:00,
2013-10-02 11:38:00,78.3,67.7,30.22,WSW,248,1.1,0.0,70,0.00,CLR,,0.00,WeatherDisplay:10.37,2013-10-02 16:38:00,
2013-10-02 11:40:00,68.1,65.7,30.18,NE,45,0.0,0.0,92,0.00,CLR,,0.06,WeatherDisplay:10.37,2013-10-02 16:40:00,
2013-10-02 11:43:00,78.8,66.9,30.22,SE,138,1.1,1.1,67,0.00,CLR,,0.00,WeatherDisplay:10.37,2013-10-02 16:43:00,
2013-10-02 11:45:00,68.1,65.7,30.18,NE,45,0.0,0.0,92,0.00,CLR,,0.06,WeatherDisplay:10.37,2013-10-02 16:45:00,
2013-10-02 11:48:00,79.6,67.7,30.21,South,189,1.1,0.0,67,0.00,CLR,,0.00,WeatherDisplay:10.37,2013-10-02 16:48:00,
2013-10-02 11:50:00,68.1,65.7,30.18,NE,45,0.0,0.0,92,0.00,CLR,,0.06,WeatherDisplay:10.37,2013-10-02 16:50:00,
2013-10-02 11:53:00,80.1,67.3,30.20,SSW,196,0.0,0.0,65,0.00,CLR,,0.00,WeatherDisplay:10.37,2013-10-02 16:53:00,
2013-10-02 11:55:00,68.1,65.7,30.18,NE,45,0.0,0.0,92,0.00,CLR,,0.06,WeatherDisplay:10.37,2013-10-02 16:55:00,
2013-10-02 11:58:00,80.9,69.3,30.20,SSW,213,0.0,0.0,68,0.00,CLR,,0.00,WeatherDisplay:10.37,2013-10-02 16:58:00,
2013-10-02 12:00:00,67.9,65.5,30.18,NE,45,0.0,0.0,92,0.00,CLR,,0.06,WeatherDisplay:10.37,2013-10-02 17:00:00,
2013-10-02 12:03:00,81.4,68.1,30.20,NE,53,2.3,2.3,64,0.00,CLR,,0.00,WeatherDisplay:10.37,2013-10-02 17:03:00,
2013-10-02 12:05:00,67.9,65.5,30.18,NE,45,0.0,0.0,92,0.00,CLR,,0.06,WeatherDisplay:10.37,2013-10-02 17:05:00,
2013-10-02 12:08:00,81.6,66.4,30.20,ENE,65,0.0,0.0,60,0.00,CLR,,0.00,WeatherDisplay:10.37,2013-10-02 17:08:00,
2013-10-02 12:10:00,67.9,65.5,30.18,NE,45,0.0,0.0,92,0.00,CLR,,0.06,WeatherDisplay:10.37,2013-10-02 17:10:00,
2013-10-02 12:13:00,81.8,67.5,30.20,SW,225,0.0,0.0,62,0.00,CLR,,0.00,WeatherDisplay:10.37,2013-10-02 17:13:00,
2013-10-02 12:15:00,67.9,65.5,30.18,NE,45,0.0,0.0,92,0.00,CLR,,0.06,WeatherDisplay:10.37,2013-10-02 17:15:00,
2013-10-02 12:18:00,82.4,68.1,30.19,WSW,248,0.0,0.0,62,0.00,CLR,,0.00,WeatherDisplay:10.37,2013-10-02 17:18:00,
2013-10-02 12:20:00,67.9,65.5,30.18,NE,45,0.0,0.0,92,0.00,CLR,,0.06,WeatherDisplay:10.37,2013-10-02 17:20:00,
2013-10-02 12:23:00,83.0,67.2,30.19,SSW,209,1.1,1.1,59,0.00,CLR,,0.00,WeatherDisplay:10.37,2013-10-02 17:23:00,
2013-10-02 12:25:00,67.9,65.8,30.18,NE,45,0.0,0.0,93,0.00,CLR,,0.06,WeatherDisplay:10.37,2013-10-02 17:25:00,
2013-10-02 12:28:00,82.8,66.0,30.19,SSW,213,1.1,0.0,57,0.00,CLR,,0.00,WeatherDisplay:10.37,2013-10-02 17:28:00,
2013-10-02 12:30:00,67.9,65.8,30.18,NE,45,0.0,0.0,93,0.00,CLR,,0.06,WeatherDisplay:10.37,2013-10-02 17:30:00,
2013-10-02 12:33:00,83.4,66.6,30.18,SSW,213,0.0,0.0,57,0.00,CLR,,0.00,WeatherDisplay:10.37,2013-10-02 17:33:00,
2013-10-02 12:35:00,67.8,65.7,30.18,NE,45,0.0,0.0,93,0.00,CLR,,0.06,WeatherDisplay:10.37,2013-10-02 17:35:00,
2013-10-02 12:38:00,83.4,66.1,30.18,SSW,200,1.0,0.0,56,0.00,CLR,,0.00,WeatherDisplay:10.37,2013-10-02 17:38:00,
2013-10-02 12:40:00,67.8,65.7,30.18,NE,45,0.0,0.0,93,0.00,CLR,,0.06,WeatherDisplay:10.37,2013-10-02 17:40:00,
2013-10-02 12:43:00,83.2,65.4,30.18,ENE,61,0.0,0.1,55,0.00,CLR,,0.00,WeatherDisplay:10.37,2013-10-02 17:43:00,
2013-10-02 12:45:00,67.8,65.7,30.18,NE,45,0.0,0.0,93,0.00,CLR,,0.06,WeatherDisplay:10.37,2013-10-02 17:45:00,
2013-10-02 12:48:00,82.8,66.5,30.18,NE,53,2.3,2.3,58,0.00,CLR,,0.00,WeatherDisplay:10.37,2013-10-02 17:48:00,
2013-10-02 12:50:00,67.8,65.7,30.18,NE,45,0.0,0.0,93,0.00,CLR,,0.06,WeatherDisplay:10.37,2013-10-02 17:50:00,
2013-10-02 12:53:00,82.8,67.5,30.18,SSW,203,1.1,1.1,60,0.00,CLR,,0.00,WeatherDisplay:10.37,2013-10-02 17:53:00,
2013-10-02 12:55:00,67.8,65.7,30.18,NE,45,0.0,0.0,93,0.00,CLR,,0.06,WeatherDisplay:10.37,2013-10-02 17:55:00,
2013-10-02 12:58:00,82.8,67.0,30.18,SSE,164,0.0,0.0,59,0.00,CLR,,0.00,WeatherDisplay:10.37,2013-10-02 17:58:00,
2013-10-02 13:00:00,67.8,65.7,30.18,NE,45,0.0,0.0,93,0.00,CLR,,0.06,WeatherDisplay:10.37,2013-10-02 18:00:00,
2013-10-02 13:03:00,82.8,66.5,30.18,WSW,239,0.0,0.0,58,0.00,CLR,,0.00,WeatherDisplay:10.37,2013-10-02 18:03:00,
2013-10-02 13:05:00,67.8,65.7,30.17,NE,45,0.0,0.0,93,0.00,RA,,0.00,WeatherDisplay:10.37,2013-10-02 18:05:00,
2013-10-02 13:08:00,82.8,67.5,30.17,NE,39,2.0,2.0,60,0.00,CLR,,0.00,WeatherDisplay:10.37,2013-10-02 18:08:00,
2013-10-02 13:10:00,67.6,65.5,30.17,NE,45,0.0,0.0,93,0.00,RA,,0.00,WeatherDisplay:10.37,2013-10-02 18:10:00,
2013-10-02 13:13:00,82.8,66.5,30.17,NE,39,1.1,0.0,58,0.00,CLR,,0.00,WeatherDisplay:10.37,2013-10-02 18:13:00,
2013-10-02 13:15:00,67.6,65.5,30.17,NE,45,0.0,0.0,93,0.00,CLR,,0.00,WeatherDisplay:10.37,2013-10-02 18:15:00,
2013-10-02 13:18:00,83.0,66.2,30.17,ESE,113,1.1,1.1,57,0.00,CLR,,0.00,WeatherDisplay:10.37,2013-10-02 18:18:00,
2013-10-02 13:20:00,67.6,65.5,30.17,NE,45,0.0,0.0,93,0.00,CLR,,0.00,WeatherDisplay:10.37,2013-10-02 18:20:00,
2013-10-02 13:23:00,82.8,66.0,30.17,ESE,115,0.0,0.0,57,0.00,CLR,,0.00,WeatherDisplay:10.37,2013-10-02 18:23:00,
2013-10-02 13:25:00,67.6,65.8,30.17,NE,45,0.0,0.0,94,0.00,CLR,,0.00,WeatherDisplay:10.37,2013-10-02 18:25:00,
2013-10-02 13:28:00,83.0,66.7,30.16,ESE,113,0.0,0.1,58,0.00,CLR,,0.00,WeatherDisplay:10.37,2013-10-02 18:28:00,
2013-10-02 13:30:00,67.6,65.8,30.17,NE,45,0.0,0.0,94,0.00,CLR,,0.00,WeatherDisplay:10.37,2013-10-02 18:30:00,
2013-10-02 13:33:00,83.0,66.2,30.16,ESE,103,0.0,0.1,57,0.00,CLR,,0.00,WeatherDisplay:10.37,2013-10-02 18:33:00,
2013-10-02 13:35:00,67.6,65.8,30.17,NE,45,0.0,0.0,94,0.00,CLR,,0.00,WeatherDisplay:10.37,2013-10-02 18:35:00,
2013-10-02 13:38:00,83.2,66.9,30.16,East,83,1.1,1.1,58,0.00,CLR,,0.00,WeatherDisplay:10.37,2013-10-02 18:38:00,
2013-10-02 13:40:00,67.6,65.8,30.17,NE,45,0.0,0.0,94,0.00,CLR,,0.00,WeatherDisplay:10.37,2013-10-02 18:40:00,
2013-10-02 13:43:00,83.2,66.4,30.16,SW,232,2.0,0.0,57,0.00,CLR,,0.00,WeatherDisplay:10.37,2013-10-02 18:43:00,
2013-10-02 13:45:00,67.6,65.8,30.17,NE,45,0.0,0.0,94,0.00,CLR,,0.00,WeatherDisplay:10.37,2013-10-02 18:45:00,
2013-10-02 13:48:00,83.6,65.7,30.15,South,178,1.1,0.0,55,0.00,CLR,,0.00,WeatherDisplay:10.37,2013-10-02 18:48:00,
2013-10-02 13:50:00,67.4,65.6,30.17,NE,45,0.0,0.0,94,0.00,CLR,,0.00,WeatherDisplay:10.37,2013-10-02 18:50:00,
2013-10-02 13:55:00,67.4,65.6,30.17,NE,45,0.0,0.0,94,0.00,CLR,,0.00,WeatherDisplay:10.37,2013-10-02 18:55:00,
2013-10-02 14:00:00,67.4,65.6,30.17,NE,45,0.0,0.0,94,0.00,CLR,,0.00,WeatherDisplay:10.37,2013-10-02 19:00:00,
2013-10-02 14:05:00,67.4,65.6,30.17,NE,45,0.0,0.0,94,0.00,CLR,,0.00,WeatherDisplay:10.37,2013-10-02 19:05:00,
2013-10-02 14:10:00,67.4,65.6,30.17,NE,45,0.0,0.0,94,0.00,CLR,,0.00,WeatherDisplay:10.37,2013-10-02 19:10:00,
2013-10-02 14:15:00,67.4,65.6,30.17,NE,45,0.0,0.0,94,0.00,CLR,,0.00,WeatherDisplay:10.37,2013-10-02 19:15:00,
2013-10-02 14:20:00,67.4,65.6,30.16,NE,45,0.0,0.0,94,0.00,CLR,,0.00,WeatherDisplay:10.37,2013-10-02 19:20:00,
2013-10-02 14:25:00,67.4,65.6,30.16,NE,45,0.0,0.0,94,0.00,CLR,,0.00,WeatherDisplay:10.37,2013-10-02 19:25:00,
2013-10-02 14:30:00,67.4,65.6,30.16,NE,45,0.0,0.0,94,0.00,CLR,,0.00,WeatherDisplay:10.37,2013-10-02 19:30:00,
2013-10-02 14:35:00,67.4,65.6,30.16,NE,45,0.0,0.0,94,0.00,CLR,,0.00,WeatherDisplay:10.37,2013-10-02 19:35:00,
2013-10-02 14:40:00,67.4,65.6,30.16,NE,45,0.0,0.0,94,0.00,CLR,,0.00,WeatherDisplay:10.37,2013-10-02 19:40:00,
2013-10-02 14:45:00,67.4,65.6,30.16,NE,45,0.0,0.0,94,0.00,CLR,,0.00,WeatherDisplay:10.37,2013-10-02 19:45:00,
2013-10-02 14:50:00,67.4,65.6,30.15,NE,45,0.0,0.0,94,0.00,CLR,,0.00,WeatherDisplay:10.37,2013-10-02 19:50:00,
2013-10-02 14:55:00,67.3,65.5,30.15,NE,45,0.0,0.0,94,0.00,CLR,,0.00,WeatherDisplay:10.37,2013-10-02 19:55:00,
2013-10-02 15:00:00,67.4,65.6,30.15,NE,45,0.0,0.0,94,0.00,CLR,,0.00,WeatherDisplay:10.37,2013-10-02 20:00:00,
2013-10-02 15:05:00,67.4,65.6,30.15,NE,45,0.0,0.0,94,0.00,CLR,,0.00,WeatherDisplay:10.37,2013-10-02 20:05:00,
2013-10-02 15:10:00,67.3,65.5,30.15,NE,45,0.0,0.0,94,0.00,CLR,,0.00,WeatherDisplay:10.37,2013-10-02 20:10:00,
2013-10-02 15:15:00,67.3,65.5,30.15,NE,45,0.0,0.0,94,0.00,CLR,,0.00,WeatherDisplay:10.37,2013-10-02 20:15:00,
2013-10-02 15:20:00,67.3,65.5,30.14,NE,45,0.0,0.0,94,0.00,CLR,,0.00,WeatherDisplay:10.37,2013-10-02 20:20:00,
2013-10-02 15:25:00,67.3,65.5,30.14,NE,45,0.0,0.0,94,0.00,CLR,,0.00,WeatherDisplay:10.37,2013-10-02 20:25:00,
2013-10-02 15:30:00,67.3,65.5,30.14,NE,45,0.0,0.0,94,0.00,CLR,,0.00,WeatherDisplay:10.37,2013-10-02 20:30:00,
2013-10-02 15:35:00,67.3,65.5,30.14,NE,45,0.0,0.0,94,0.00,CLR,,0.00,WeatherDisplay:10.37,2013-10-02 20:35:00,
2013-10-02 15:40:00,67.1,65.6,30.14,NE,45,0.0,0.0,95,0.00,CLR,,0.00,WeatherDisplay:10.37,2013-10-02 20:40:00,
2013-10-02 15:45:00,67.3,65.8,30.14,NE,45,0.0,0.0,95,0.00,CLR,,0.00,WeatherDisplay:10.37,2013-10-02 20:45:00,
2013-10-02 15:50:00,67.3,65.8,30.14,NE,45,0.0,0.0,95,0.00,CLR,,0.00,WeatherDisplay:10.37,2013-10-02 20:50:00,
2013-10-02 15:55:00,67.1,65.6,30.14,NE,45,0.0,0.0,95,0.00,CLR,,0.00,WeatherDisplay:10.37,2013-10-02 20:55:00,
2013-10-02 16:00:00,67.1,65.6,30.14,NE,45,0.0,0.0,95,0.00,CLR,,0.00,WeatherDisplay:10.37,2013-10-02 21:00:00,
2013-10-02 16:05:00,67.1,65.6,30.14,NE,45,0.0,0.0,95,0.00,CLR,,0.00,WeatherDisplay:10.37,2013-10-02 21:05:00,
2013-10-02 16:10:00,67.1,65.6,30.14,NE,45,0.0,0.0,95,0.00,CLR,,0.00,WeatherDisplay:10.37,2013-10-02 21:10:00,
2013-10-02 16:15:00,66.9,65.4,30.14,NE,45,0.0,0.0,95,0.00,CLR,,0.00,WeatherDisplay:10.37,2013-10-02 21:15:00,
2013-10-02 16:20:00,66.9,65.4,30.14,NE,45,0.0,0.0,95,0.00,CLR,,0.00,WeatherDisplay:10.37,2013-10-02 21:20:00,
2013-10-02 16:25:00,66.9,65.4,30.14,NE,45,0.0,0.0,95,0.00,CLR,,0.00,WeatherDisplay:10.37,2013-10-02 21:25:00,
2013-10-02 16:30:00,66.9,65.4,30.14,NE,45,0.0,0.0,95,0.00,CLR,,0.00,WeatherDisplay:10.37,2013-10-02 21:30:00,
2013-10-02 16:35:00,66.8,65.3,30.14,NE,45,0.0,0.0,95,0.00,CLR,,0.00,WeatherDisplay:10.37,2013-10-02 21:35:00,
2013-10-02 16:40:00,66.8,65.3,30.14,NE,45,0.0,0.0,95,0.00,CLR,,0.00,WeatherDisplay:10.37,2013-10-02 21:40:00,
2013-10-02 16:45:00,66.6,65.1,30.14,NE,45,0.0,0.0,95,0.00,CLR,,0.00,WeatherDisplay:10.37,2013-10-02 21:45:00,
2013-10-02 16:50:00,66.6,65.1,30.15,NE,45,0.0,0.0,95,0.00,CLR,,0.00,WeatherDisplay:10.37,2013-10-02 21:50:00,
2013-10-02 16:55:00,66.4,64.9,30.15,NE,45,0.0,0.0,95,0.00,CLR,,0.00,WeatherDisplay:10.37,2013-10-02 21:55:00,
2013-10-02 17:00:00,66.4,64.9,30.15,NE,45,0.0,0.0,95,0.00,CLR,,0.00,WeatherDisplay:10.37,2013-10-02 22:00:00,
2013-10-02 17:05:00,66.3,64.8,30.15,NE,45,0.0,0.0,95,0.00,CLR,,0.00,WeatherDisplay:10.37,2013-10-02 22:05:00,
2013-10-02 17:10:00,66.3,64.8,30.15,NE,45,0.0,0.0,95,0.00,CLR,,0.00,WeatherDisplay:10.37,2013-10-02 22:10:00,
2013-10-02 17:15:00,66.3,64.8,30.15,NE,45,0.0,0.0,95,0.00,CLR,,0.00,WeatherDisplay:10.37,2013-10-02 22:15:00,
2013-10-02 17:20:00,66.1,64.6,30.15,NE,45,0.0,0.0,95,0.00,CLR,,0.00,WeatherDisplay:10.37,2013-10-02 22:20:00,
2013-10-02 17:25:00,66.1,64.6,30.15,NE,45,0.0,0.0,95,0.00,CLR,,0.00,WeatherDisplay:10.37,2013-10-02 22:25:00,
2013-10-02 17:30:00,66.1,64.6,30.15,NE,45,0.0,0.0,95,0.00,CLR,,0.00,WeatherDisplay:10.37,2013-10-02 22:30:00,
2013-10-02 17:35:00,66.0,64.8,30.15,NE,45,0.0,0.0,96,0.00,CLR,,0.00,WeatherDisplay:10.37,2013-10-02 22:35:00,
2013-10-02 17:40:00,66.0,64.8,30.15,NE,45,0.0,0.0,96,0.00,CLR,,0.00,WeatherDisplay:10.37,2013-10-02 22:40:00,
2013-10-02 17:45:00,66.0,64.8,30.15,NE,45,0.0,0.0,96,0.00,CLR,,0.00,WeatherDisplay:10.37,2013-10-02 22:45:00,
2013-10-02 17:50:00,66.0,64.8,30.16,NE,45,0.0,0.0,96,0.00,CLR,,0.00,WeatherDisplay:10.37,2013-10-02 22:50:00,
2013-10-02 17:55:00,66.0,64.8,30.16,NE,45,0.0,0.0,96,0.00,CLR,,0.00,WeatherDisplay:10.37,2013-10-02 22:55:00,
2013-10-02 18:00:00,66.1,64.9,30.16,NE,45,0.0,0.0,96,0.00,CLR,,0.00,WeatherDisplay:10.37,2013-10-02 23:00:00,
2013-10-02 18:05:00,66.3,65.1,30.16,NE,45,0.0,0.0,96,0.00,CLR,,0.00,WeatherDisplay:10.37,2013-10-02 23:05:00,
2013-10-02 18:10:00,66.3,65.1,30.16,NE,45,0.0,0.0,96,0.00,CLR,,0.00,WeatherDisplay:10.37,2013-10-02 23:10:00,
2013-10-02 18:15:00,66.3,65.1,30.16,NE,45,0.0,0.0,96,0.00,CLR,,0.00,WeatherDisplay:10.37,2013-10-02 23:15:00,
2013-10-02 18:20:00,66.3,65.1,30.17,NE,45,0.0,0.0,96,0.00,CLR,,0.00,WeatherDisplay:10.37,2013-10-02 23:20:00,
2013-10-02 18:25:00,66.1,64.9,30.17,NE,45,0.0,0.0,96,0.00,CLR,,0.00,WeatherDisplay:10.37,2013-10-02 23:25:00,
2013-10-02 18:30:00,66.3,65.1,30.17,NE,45,0.0,0.0,96,0.00,CLR,,0.00,WeatherDisplay:10.37,2013-10-02 23:30:00,
2013-10-02 18:35:00,66.3,65.1,30.17,NE,45,0.0,0.0,96,0.00,CLR,,0.00,WeatherDisplay:10.37,2013-10-02 23:35:00,
2013-10-02 18:40:00,66.3,65.1,30.17,NE,45,0.0,0.0,96,0.00,CLR,,0.00,WeatherDisplay:10.37,2013-10-02 23:40:00,
2013-10-02 18:45:00,66.3,65.1,30.17,NE,45,0.0,0.0,96,0.00,CLR,,0.00,WeatherDisplay:10.37,2013-10-02 23:45:00,
2013-10-02 18:50:00,66.3,65.1,30.17,NE,45,0.0,0.0,96,0.00,CLR,,0.00,WeatherDisplay:10.37,2013-10-02 23:50:00,
2013-10-02 18:55:00,66.3,65.1,30.17,NE,45,0.0,0.0,96,0.00,CLR,,0.00,WeatherDisplay:10.37,2013-10-02 23:55:00,
2013-10-02 19:00:00,66.3,65.1,30.17,NE,45,0.0,0.0,96,0.00,CLR,,0.00,WeatherDisplay:10.37,2013-10-03 00:00:00,
2013-10-02 19:05:00,66.1,64.9,30.18,NE,45,0.0,0.0,96,0.00,CLR,,0.00,WeatherDisplay:10.37,2013-10-03 00:05:00,
2013-10-02 19:10:00,66.1,64.9,30.18,NE,45,0.0,0.0,96,0.00,CLR,,0.00,WeatherDisplay:10.37,2013-10-03 00:10:00,
2013-10-02 19:15:00,66.1,64.9,30.18,NE,45,0.0,0.0,96,0.00,CLR,,0.00,WeatherDisplay:10.37,2013-10-03 00:15:00,
2013-10-02 19:20:00,66.0,64.8,30.18,NE,45,0.0,0.0,96,0.00,CLR,,0.00,WeatherDisplay:10.37,2013-10-03 00:20:00,
2013-10-02 19:25:00,66.0,64.8,30.18,NE,45,0.0,0.0,96,0.00,CLR,,0.00,WeatherDisplay:10.37,2013-10-03 00:25:00,
2013-10-02 19:30:00,65.8,64.6,30.18,NE,45,0.0,0.0,96,0.00,CLR,,0.00,WeatherDisplay:10.37,2013-10-03 00:30:00,
2013-10-02 19:35:00,65.6,64.4,30.19,NE,45,0.0,0.0,96,0.00,CLR,,0.00,WeatherDisplay:10.37,2013-10-03 00:35:00,
2013-10-02 19:40:00,65.5,64.3,30.19,NE,45,0.0,0.0,96,0.00,CLR,,0.00,WeatherDisplay:10.37,2013-10-03 00:40:00,
2013-10-02 19:45:00,65.5,64.3,30.19,NE,45,0.0,0.0,96,0.00,CLR,,0.00,WeatherDisplay:10.37,2013-10-03 00:45:00,
2013-10-02 19:50:00,65.3,64.1,30.19,NE,45,0.0,0.0,96,0.00,CLR,,0.00,WeatherDisplay:10.37,2013-10-03 00:50:00,
2013-10-02 19:55:00,65.5,64.3,30.19,NE,45,0.0,0.0,96,0.00,CLR,,0.00,WeatherDisplay:10.37,2013-10-03 00:55:00,
2013-10-02 20:00:00,65.5,64.3,30.19,NE,45,0.0,0.0,96,0.00,CLR,,0.00,WeatherDisplay:10.37,2013-10-03 01:00:00,
2013-10-02 20:05:00,65.6,64.4,30.19,NE,45,0.0,0.0,96,0.00,CLR,,0.00,WeatherDisplay:10.37,2013-10-03 01:05:00,
2013-10-02 20:10:00,65.8,64.6,30.19,NE,45,0.0,0.0,96,0.00,CLR,,0.00,WeatherDisplay:10.37,2013-10-03 01:10:00,
2013-10-02 20:15:00,65.8,64.6,30.19,NE,45,0.0,0.0,96,0.00,CLR,,0.00,WeatherDisplay:10.37,2013-10-03 01:15:00,
2013-10-02 20:20:00,66.0,64.8,30.20,NE,45,0.0,0.0,96,0.00,CLR,,0.00,WeatherDisplay:10.37,2013-10-03 01:20:00,
2013-10-02 20:25:00,66.1,64.9,30.20,NE,45,0.0,0.0,96,0.00,CLR,,0.00,WeatherDisplay:10.37,2013-10-03 01:25:00,
2013-10-02 20:30:00,66.3,65.1,30.20,NE,45,0.0,0.0,96,0.00,CLR,,0.00,WeatherDisplay:10.37,2013-10-03 01:30:00,
2013-10-02 20:35:00,66.4,65.2,30.20,NE,45,0.0,0.0,96,0.00,CLR,,0.00,WeatherDisplay:10.37,2013-10-03 01:35:00,
2013-10-02 20:40:00,66.9,66.0,30.20,NE,45,0.0,0.0,97,0.00,CLR,,0.00,WeatherDisplay:10.37,2013-10-03 01:40:00,
2013-10-02 20:45:00,67.3,66.1,30.20,NE,45,0.0,0.0,96,0.00,CLR,,0.00,WeatherDisplay:10.37,2013-10-03 01:45:00,
2013-10-02 20:50:00,67.1,65.9,30.20,NE,45,0.0,0.0,96,0.00,CLR,,0.00,WeatherDisplay:10.37,2013-10-03 01:50:00,
2013-10-02 20:55:00,67.4,66.2,30.20,NE,45,0.0,0.0,96,0.00,CLR,,0.00,WeatherDisplay:10.37,2013-10-03 01:55:00,
2013-10-02 21:00:00,68.1,66.9,30.20,NE,45,0.0,0.0,96,0.00,CLR,,0.00,WeatherDisplay:10.37,2013-10-03 02:00:00,
2013-10-02 21:05:00,68.6,67.4,30.20,NE,45,0.0,0.0,96,0.00,CLR,,0.00,WeatherDisplay:10.37,2013-10-03 02:05:00,
2013-10-02 21:10:00,69.1,67.6,30.20,NE,45,0.0,0.0,95,0.00,CLR,,0.00,WeatherDisplay:10.37,2013-10-03 02:10:00,
2013-10-02 21:15:00,69.8,67.7,30.20,NE,45,0.0,0.0,93,0.00,CLR,,0.00,WeatherDisplay:10.37,2013-10-03 02:15:00,
2013-10-02 21:20:00,70.8,67.7,30.20,NE,45,0.0,0.0,90,0.00,CLR,,0.00,WeatherDisplay:10.37,2013-10-03 02:20:00,
2013-10-02 21:25:00,71.5,67.8,30.20,NE,45,0.0,0.0,88,0.00,CLR,,0.00,WeatherDisplay:10.37,2013-10-03 02:25:00,
2013-10-02 21:30:00,72.3,68.2,30.20,NE,45,0.0,0.0,87,0.00,CLR,,0.00,WeatherDisplay:10.37,2013-10-03 02:30:00,
2013-10-02 21:35:00,72.8,67.3,30.20,NE,45,0.0,1.0,83,0.00,CLR,,0.00,WeatherDisplay:10.37,2013-10-03 02:35:00,
2013-10-02 21:40:00,73.3,67.5,30.20,NE,45,0.0,1.0,82,0.00,CLR,,0.00,WeatherDisplay:10.37,2013-10-03 02:40:00,
2013-10-02 21:45:00,74.0,67.4,30.20,NE,45,0.0,1.0,80,0.00,CLR,,0.00,WeatherDisplay:10.37,2013-10-03 02:45:00,
2013-10-02 21:50:00,74.7,68.1,30.20,NE,45,0.0,1.0,80,0.00,CLR,,0.00,WeatherDisplay:10.37,2013-10-03 02:50:00,
2013-10-02 21:55:00,74.9,67.2,30.20,NE,45,0.0,1.0,77,0.00,CLR,,0.00,WeatherDisplay:10.37,2013-10-03 02:55:00,
2013-10-02 22:00:00,74.9,67.2,30.20,NE,45,0.0,1.0,77,0.00,CLR,,0.00,WeatherDisplay:10.37,2013-10-03 03:00:00,
2013-10-02 22:05:00,75.1,67.4,30.20,NE,45,0.0,1.0,77,0.00,CLR,,0.00,WeatherDisplay:10.37,2013-10-03 03:05:00,
2013-10-02 22:10:00,75.3,66.8,30.20,NE,45,0.0,1.0,75,0.00,CLR,,0.00,WeatherDisplay:10.37,2013-10-03 03:10:00,
2013-10-02 22:15:00,75.4,66.9,30.20,NE,45,0.0,1.0,75,0.00,CLR,,0.00,WeatherDisplay:10.37,2013-10-03 03:15:00,
2013-10-02 22:20:00,76.0,67.1,30.20,NE,45,0.0,0.0,74,0.00,CLR,,0.00,WeatherDisplay:10.37,2013-10-03 03:20:00,
2013-10-02 22:25:00,76.5,66.0,30.20,NE,45,0.0,1.0,70,0.00,CLR,,0.00,WeatherDisplay:10.37,2013-10-03 03:25:00,
2013-10-02 22:30:00,77.2,66.2,30.20,NE,45,0.0,0.0,69,0.00,CLR,,0.00,WeatherDisplay:10.37,2013-10-03 03:30:00,
2013-10-02 22:35:00,77.2,67.1,30.20,NE,45,0.0,1.0,71,0.00,CLR,,0.00,WeatherDisplay:10.37,2013-10-03 03:35:00,
2013-10-02 22:40:00,77.2,67.1,30.20,NE,45,0.0,1.0,71,0.00,CLR,,0.00,WeatherDisplay:10.37,2013-10-03 03:40:00,
2013-10-02 22:45:00,77.2,67.5,30.20,NE,45,0.0,1.0,72,0.00,CLR,,0.00,WeatherDisplay:10.37,2013-10-03 03:45:00,
2013-10-02 22:50:00,77.6,68.3,30.20,NE,45,0.0,3.0,73,0.00,CLR,,0.00,WeatherDisplay:10.37,2013-10-03 03:50:00,
2013-10-02 22:55:00,77.9,66.5,30.20,NE,45,0.0,1.0,68,0.00,CLR,,0.00,WeatherDisplay:10.37,2013-10-03 03:55:00,
2013-10-02 23:00:00,78.1,66.7,30.20,NE,45,0.0,3.0,68,0.00,CLR,,0.00,WeatherDisplay:10.37,2013-10-03 04:00:00,
2013-10-02 23:05:00,78.5,66.6,30.20,NE,45,0.0,1.0,67,0.00,CLR,,0.00,WeatherDisplay:10.37,2013-10-03 04:05:00,
2013-10-02 23:10:00,78.5,67.1,30.20,NE,45,0.0,1.0,68,0.00,CLR,,0.00,WeatherDisplay:10.37,2013-10-03 04:10:00,
2013-10-02 23:15:00,78.8,67.3,30.20,NE,45,0.0,1.0,68,0.00,CLR,,0.00,WeatherDisplay:10.37,2013-10-03 04:15:00,
2013-10-02 23:20:00,79.4,67.0,30.20,NE,45,0.0,1.0,66,0.00,CLR,,0.00,WeatherDisplay:10.37,2013-10-03 04:20:00,
2013-10-02 23:25:00,79.8,66.5,30.20,NE,45,0.0,1.0,64,0.00,CLR,,0.00,WeatherDisplay:10.37,2013-10-03 04:25:00,
2013-10-02 23:30:00,79.9,66.2,30.20,NE,45,0.0,1.0,63,0.00,CLR,,0.00,WeatherDisplay:10.37,2013-10-03 04:30:00,
2013-10-02 23:35:00,80.5,66.3,30.19,NE,45,0.0,1.0,62,0.00,CLR,,0.00,WeatherDisplay:10.37,2013-10-03 04:35:00,
2013-10-02 23:40:00,80.7,65.0,30.19,NE,45,0.0,3.0,59,0.00,CLR,,0.00,WeatherDisplay:10.37,2013-10-03 04:40:00,
2013-10-02 23:45:00,80.5,64.4,30.19,NE,45,0.0,1.0,58,0.00,CLR,,0.00,WeatherDisplay:10.37,2013-10-03 04:45:00,
2013-10-02 23:50:00,81.1,65.9,30.19,NE,45,0.0,1.0,60,0.00,CLR,,0.00,WeatherDisplay:10.37,2013-10-03 04:50:00,
2013-10-02 23:55:00,81.2,64.5,30.19,NE,45,0.0,1.0,57,0.00,CLR,,0.00,WeatherDisplay:10.37,2013-10-03 04:55:00,